Tracking 20712 objects as of 29-May-2020
HD Live streaming from Space Station
objects crossing your sky now

IRIDIUM 33 DEB

Track IRIDIUM 33 DEB now!
10-day predictions


NORAD ID: 34525
Int'l Code: 1997-051HS
Perigee: 773.3 km
Apogee: 776.8 km
Inclination: 86.4 °
Period: 100.2 minutes
Semi major axis: 7146 km
RCS: 0.0234 m2 (small)
Launch date: September 14, 1997
Source: United States (US)
Launch site: TYURATAM MISSILE AND SPACE COMPLEX (TTMTR)

Note: This is SATELLITE DEBRIS
aabbcc
Your satellite tracking list
Your tracking list is empty




NASA's NSSDC Master Catalog

Two Line Element Set (TLE):
1 34525U 97051HS  20149.80852377 +.00000193 +00000-0 +58430-4 0  9994
2 34525 086.3783 184.4638 0002479 242.4538 165.5416 14.37159471589822
Source of the keplerian elements: AFSPC